Regional Weather Roundup
Issued by NWS

Home | Current Version | Previous Version | Graphics & Text | Print | Product List | Glossary On
Versions: 1 2 3 4 5 6 7 8 9 10 11 12 13 14 15 16 17 18 19 20 21 22 23 24 25 26 27 28 29 30 31 32 33 34 35 36 37 38 39 40 41 42 43 44 45 46 47 48 49 50
000
ASUS43 KOAX 201910
RWRNE

WEATHER ROUNDUP FOR NEBRASKA
NATIONAL WEATHER SERVICE OMAHA NE
100 PM CST SAT JAN 20 2018

NOTES: SATELLITE DATA IS BEING USED TO AUGMENT CLOUD COVER ABOVE
       12000 FEET.
       "FAIR" INDICATES FEW OR NO CLOUDS BELOW 12,000 FEET WITH NO
       SIGNIFICANT WEATHER AND/OR OBSTRUCTIONS TO VISIBILITY.


NEZ001>004-019>022-054>056-202000-
NEBRASKA PANHANDLE

CITY           SKY/WX    TMP DP  RH WIND       PRES   REMARKS
SCOTTSBLUFF    CLOUDY    35  31  85 NE9       29.84F WCI  28
ALLIANCE       CLOUDY    32  31  96 NE16      29.84F WCI  21
CHADRON        CLOUDY    34  33  96 NE6       29.89F WCI  29
GORDON         CLOUDY    36  32  87 NE8       29.88F WCI  29
KIMBALL        CLOUDY    35  29  80 N12       29.81F WCI  26
SIDNEY         CLOUDY    37  29  72 N13       29.82F WCI  29
$$

NEZ057>060-069>072-079>082-202000-
SOUTHWEST NEBRASKA

CITY           SKY/WX    TMP DP  RH WIND       PRES   REMARKS
NORTH PLATTE   SUNNY     47  32  56 NE13      29.81F
IMPERIAL       SUNNY     47  30  51 NE13G22   29.78F
LEXINGTON      SUNNY     46  33  60 NE12      29.78F
MCCOOK         MOSUNNY   48  32  53 NE12G25   29.76F
OGALLALA       MOSUNNY   46  31  56 NE12      29.80F
$$

NEZ005>010-023>029-035>040-094-202000-
NORTH CENTRAL NEBRASKA

CITY           SKY/WX    TMP DP  RH WIND       PRES   REMARKS
VALENTINE      CLOUDY    42  34  73 N8        29.88F
AINSWORTH      CLOUDY    38  35  87 N10       29.87F WCI  31
BROKEN BOW     SUNNY     46  32  58 NE10      29.81F
O`NEILL        CLOUDY    38  34  86 N10       29.86F WCI  30
ORD            SUNNY     49  31  49 NE7       29.82F
THEDFORD       PTSUNNY   41  33  74 N8        29.86F
$$

NEZ041-046>049-061>064-073>077-083>087-202000-
SOUTH CENTRAL NEBRASKA

CITY           SKY/WX    TMP DP  RH WIND       PRES   REMARKS
GRAND ISLAND   SUNNY     44  36  73 NE9       29.81F
AURORA         SUNNY     46  34  63 NE10      29.79F
HASTINGS       SUNNY     44  31  60 NE9       29.79F
HEBRON         CLOUDY    40  39  96 NE3       29.80F FOG
HOLDREGE       SUNNY     43  35  73 NE15      29.77F
KEARNEY        SUNNY     43  35  73 NE14      29.78F
YORK           SUNNY     46  32  57 NE7       29.81F
$$

NEZ011>018-030>034-042>045-202000-
NORTHEAST NEBRASKA

CITY           SKY/WX    TMP DP  RH WIND       PRES   REMARKS
NORFOLK        SUNNY     51  32  48 N7        29.81F
ALBION         SUNNY     50  33  52 E10       29.82F
BLAIR          SUNNY     46  31  55 CALM      29.83F
COLUMBUS       SUNNY     50  33  52 E9        29.83
FREMONT        SUNNY     46  32  58 E5        29.84F
TEKAMAH        SUNNY     49  33  54 E6        29.84F
WAYNE          CLOUDY    49  32  51 NE5       29.84F
$$

NEZ050>053-065>068-078-088>093-202000-
SOUTHEAST NEBRASKA

CITY           SKY/WX    TMP DP  RH WIND       PRES   REMARKS
LINCOLN        MOSUNNY   44  37  76 CALM      29.84F
OMAHA EPPLEY   MOSUNNY   44  31  60 S8        29.84F
BEATRICE       CLOUDY    47  43  85 CALM      29.82F
FALLS CITY     CLOUDY    51  43  74 S3        29.83F
NEBRASKA CITY  CLOUDY    42  39  88 NE3       29.84F
PLATTSMOUTH    CLOUDY    43  40  88 CALM      29.84F
$$

NEZ044-045-051>053-067-202000-
OMAHA AREA

CITY           SKY/WX    TMP DP  RH WIND       PRES   REMARKS
OMAHA EPPLEY   MOSUNNY   44  31  60 S8        29.84F
BLAIR          SUNNY     46  31  55 CALM      29.83F
FREMONT        SUNNY     46  32  58 E5        29.84F
MILLARD        SUNNY     45  33  61 SE3       29.84F
OFFUTT AFB     SUNNY     43  38  84 S5        29.84F
PLATTSMOUTH    CLOUDY    43  40  88 CALM      29.84F
WAHOO          FAIR      46  30  54 E3        29.83F
$$




USA.gov is the U.S. government's official web portal to all federal, state and local government web resources and services.